Powrót do katalogu

COSMOS 2251 DEB

AktywnyLEO
NORAD 38058·DEBRIS·🇷🇺 Russia

Wystrzelony Jun 16, 1993 z Plesetsk Cosmodrome

Loading…

Następne Przeloty (najbliższe 24 godziny)

TLE

NieaktualneSource: Space-Track

Epoka: Sep 1, 2026, 07:15 UTC

1 38058U 93036BRQ 26244.30267759  .00001864  00000-0  14017-2 0  9996
2 38058  73.9989 222.9664 0397338  52.0273 311.6038 13.63372207619062

Śledź COSMOS 2251 DEB w czasie rzeczywistym z AllMySat

Download on the App Store